Theta_e
298 297 296 295 295 294 294 294 295 295 297 298 298 299 299 298 297 297 297 297 298 298 299 300 303 308 310 312 314 318 325 334
298 297 296 295 295 294 294 294 293 293 294 294 295 295 296 296 296 296 295 296 296 297 297 299 301 304 305 307 311 317 321 324
299 297 296 294 294 293 293 292 291 291 291 291 291 292 293 292 292 293 293 293 294 295 295 297 300 301 302 303 304 308 316 321
299 298 296 294 293 292 291 291 290 290 290 290 290 291 291 292 292 292 292 292 292 293 294 296 297 298 299 300 301 304 308 311
299 298 296 293 292 292 291 291 290 290 290 290 289 289 289 290 291 291 291 291 291 292 293 293 294 295 296 299 301 301 304 307
298 297 296 293 293 292 291 290 290 290 289 289 289 288 288 289 289 291 291 290 291 291 291 291 292 293 294 297 299 300 301 304
297 297 296 293 292 292 291 290 290 290 289 289 288 288 287 288 289 289 290 290 290 290 290 290 291 292 293 295 298 300 301 302
295 296 294 293 292 292 291 290 289 289 289 288 287 288 288 287 288 288 288 289 289 289 289 290 290 292 293 295 297 298 298 300
295 296 293 293 292 291 291 290 289 289 289 288 287 287 287 287 288 287 288 288 289 288 289 289 290 292 293 295 294 295 296 297
296 295 294 293 292 291 290 289 289 289 289 287 286 286 286 287 287 287 288 288 288 288 288 289 290 292 293 291 291 292 293 294
296 294 293 292 292 291 290 289 288 289 288 287 285 286 286 286 286 287 287 287 287 288 288 288 289 291 289 289 289 289 290 293
295 294 293 292 291 290 289 288 288 288 287 286 285 285 285 285 285 286 286 286 287 287 287 287 289 289 287 287 286 287 288 290
294 293 292 291 290 290 289 288 288 287 286 284 284 284 284 285 285 285 284 285 285 286 286 287 288 287 286 285 285 285 286 288
292 292 291 291 290 290 288 288 287 286 285 283 283 283 284 284 284 284 284 284 285 284 285 285 285 285 286 284 284 284 284 286
291 291 290 290 289 289 288 287 286 284 283 282 282 283 283 284 284 284 284 284 285 284 283 284 283 283 284 283 284 283 283 284
291 290 289 288 288 288 287 286 284 283 282 282 282 282 282 283 283 283 283 283 284 283 283 283 282 282 282 283 283 283 282 283
291 290 288 287 286 286 286 284 283 282 281 281 281 281 281 283 282 282 282 282 283 282 282 282 281 281 281 282 283 282 282 282
290 287 286 285 284 285 284 282 281 280 280 280 281 281 281 281 282 281 281 281 281 282 281 282 280 280 281 282 283 281 281 282
286 285 284 283 283 284 282 281 280 279 280 280 280 280 280 281 281 281 281 281 281 282 281 281 280 279 280 281 282 281 281 281
Wind_Speed
11 16 18 21 24 28 30 31 32 32 30 28 25 25 24 27 29 28 29 31 31 28 29 30 24 22 23 26 26 30 27 29
11 15 18 22 25 28 30 32 31 32 32 31 30 29 26 26 27 28 29 32 32 29 30 24 22 20 21 23 26 24 27 28
8 12 16 21 23 27 28 29 28 29 26 22 17 17 17 20 26 27 28 32 31 27 26 24 21 23 21 22 23 27 25 27
2 7 11 16 19 22 24 25 26 26 27 27 26 19 25 26 31 30 31 29 29 27 25 24 24 24 22 23 22 22 26 32
2 1 5 11 16 19 23 24 25 25 26 28 29 22 18 22 22 23 26 26 29 25 25 26 26 26 25 25 23 25 24 27
5 3 3 8 13 16 18 21 23 24 26 28 28 27 23 21 21 22 20 23 24 25 27 28 28 27 27 28 28 27 27 28
6 4 1 4 10 13 16 21 23 23 25 27 25 25 24 21 21 22 24 24 25 27 30 31 30 29 30 31 31 31 28 32
6 8 2 5 11 15 18 21 23 22 22 26 26 23 23 18 21 22 26 25 25 29 30 34 34 34 33 32 33 27 30 33
6 6 2 6 10 14 15 19 22 21 21 26 28 26 24 21 20 21 22 24 26 27 29 31 32 34 33 31 30 30 29 32
6 4 4 6 8 11 14 18 20 20 20 25 27 26 25 26 25 22 23 24 26 28 29 31 31 32 26 31 30 30 30 33
6 3 1 3 6 9 10 14 17 17 18 24 27 26 25 26 25 26 25 27 27 29 30 31 30 27 27 29 31 32 32 33
6 5 2 2 5 6 8 13 16 15 20 26 29 28 27 27 26 27 25 29 28 28 31 29 30 25 27 30 34 32 34 34
7 7 4 2 5 6 10 14 15 17 22 26 26 26 26 26 26 25 29 28 28 27 30 29 29 26 28 30 34 35 33 35
6 6 4 3 8 8 10 14 14 20 25 28 27 26 26 27 27 28 29 28 28 28 27 26 30 31 28 32 32 34 33 33
5 3 1 4 7 7 10 12 15 22 26 28 26 25 25 25 27 28 28 27 26 27 27 24 26 29 26 34 35 34 31 32
5 3 1 3 5 7 10 10 17 22 25 24 24 24 24 23 25 26 28 26 25 26 25 25 28 26 26 34 35 32 31 31
6 4 4 5 7 8 7 14 19 23 24 22 22 23 24 22 25 26 27 28 26 26 25 24 27 25 28 31 34 31 29 29
5 5 7 7 8 8 10 15 20 22 21 21 21 22 23 23 22 24 26 26 27 25 25 25 27 25 28 31 33 28 26 27
5 9 7 7 9 7 12 17 19 19 18 20 22 23 23 23 23 24 24 25 26 24 24 24 26 26 28 31 34 27 24 26
Wind_Direction
65 61 56 50 43 37 32 26 21 17 13 10 9 8 5 1 359 0 360 358 360 2 354 346 344 339 330 322 314 303 300 252
60 53 49 44 40 35 30 25 21 17 14 10 3 360 358 356 353 356 355 354 355 359 350 348 340 337 331 326 322 312 306 295
52 44 41 38 34 31 27 26 22 19 16 12 1 347 349 350 348 352 351 351 352 350 350 345 335 329 326 325 320 311 300 291
56 32 28 30 30 29 27 25 23 19 16 13 8 12 353 354 352 347 345 347 346 347 344 340 331 326 318 317 316 312 304 297
178 55 33 29 27 25 25 24 22 19 18 16 14 9 350 339 333 334 335 340 343 342 339 333 331 322 315 311 307 306 297 294
197 186 77 38 26 22 22 22 22 19 18 16 11 4 352 337 335 332 335 338 340 339 334 331 326 321 314 308 306 304 294 287
194 185 143 28 25 18 18 17 18 16 15 13 8 2 355 343 337 340 338 337 338 337 334 329 323 320 314 308 304 299 296 292
178 182 153 27 17 12 13 11 10 9 9 8 6 360 354 347 344 338 338 335 333 331 331 328 322 320 313 307 305 307 303 292
175 169 112 29 14 8 5 6 2 2 4 2 2 1 354 349 344 341 336 335 332 328 327 326 324 321 320 315 323 311 302 295
177 157 54 16 357 357 2 359 356 357 359 357 357 356 355 349 345 336 335 335 333 335 333 330 328 324 326 330 323 316 308 300
167 149 94 352 337 341 352 354 348 350 354 355 354 354 354 352 348 339 331 335 336 337 336 333 329 330 338 334 329 322 319 308
179 181 191 291 318 326 339 352 348 355 354 353 355 355 356 355 351 347 341 339 339 336 338 335 334 336 338 338 335 328 326 318
166 178 194 267 334 329 349 349 352 357 351 353 356 357 356 355 351 348 348 346 341 336 338 339 341 342 341 342 338 332 330 325
159 177 204 347 345 339 342 347 354 351 352 355 356 357 356 354 347 346 347 343 340 342 339 341 341 338 335 344 338 333 331 329
170 162 253 350 343 330 343 350 352 350 351 354 354 353 353 354 348 346 342 342 340 340 342 340 341 342 340 344 338 337 335 336
158 180 203 15 356 354 349 354 351 351 351 352 353 350 353 353 349 345 343 343 342 341 338 340 343 343 341 341 340 339 338 338
159 139 85 46 15 358 2 355 350 351 354 350 350 348 352 350 349 346 344 346 343 343 342 340 343 341 342 342 343 341 341 340
134 99 74 47 13 5 3 352 349 355 356 348 345 346 348 350 349 347 345 343 344 339 343 343 341 341 344 343 345 342 338 340
111 98 75 35 15 12 349 352 358 357 349 344 347 347 347 348 347 346 344 342 339 336 338 343 343 343 347 345 347 344 342 344